Poughkeepsie, NY

8:49 PM EST on February 21, 2018 (GMT -0500)
Dutchess County

Weather History for KPOU - February, 2015

Change the Weather History Date:

Friday, February 27, 2015

  Actual Average Record
Temperature  
Mean Temperature 14 °F 31 °F  
Max Temperature 28 °F 42 °F 64 °F (1976)
Min Temperature 0 °F 20 °F -14 °F (1963)
Degree Days  
Heating Degree Days 51 34  
Month to date heating degree days 1320 985  
Since 1 July heating degree days 4631 4537  
Cooling Degree Days 0 0  
Month to date cooling degree days 0 0  
Year to date cooling degree days 0 0  
Moisture  
Dew Point 0 °F    
Average Humidity 60    
Maximum Humidity 87    
Minimum Humidity 33    
Precipitation  
Precipitation 0.00 in 0.11 in 0.65 in (2013)
Month to date precipitation 1.36 2.56  
Year to date precipitation 4.30 5.64  
Sea Level Pressure  
Sea Level Pressure 30.40 in    
Wind  
Wind Speed 3 mph (NNW)    
Max Wind Speed 10 mph    
Max Gust Speed 15 mph    
Visibility 10 miles    
Events      
T = Trace of Precipitation, MM = Missing Value Source: NWS Daily Summary

Daily Weather History Graph

Daily Weather History Graph

Search for Another Location

Airport or City:

Trip Planner

Search our weather history database for the weather conditions in past years. The results will help you decide how hot, cold, wet, or windy it might be!

Date:

Astronomy

Feb. 27, 2015 Rise Set
Actual Time 6:33 AM EST 5:43 PM EST
Civil Twilight 6:05 AM EST 6:11 PM EST
Nautical Twilight 5:33 AM EST 6:43 PM EST
Astronomical Twilight 5:01 AM EST 7:15 PM EST
Moon 12:28 PM EST (2/27) 2:24 AM EST (2/27)
Length of Visible Light 12h 05m
Length of Day
11h 09m
Waxing Gibbous, 70% of the Moon is Illuminated
Feb 27
Waxing Gibbous
Mar 5
Full
Mar 13
Last Quarter
Mar 20
New
Mar 27
First Quarter

Hourly Weather History & Observations

Time (EST) Temp. Windchill Dew Point Humidity Pressure Visibility Wind Dir Wind Speed Gust Speed Precip Events Conditions
12:53 AM 12.9 °F - 3.9 °F 67% 30.18 in 10.0 mi Calm Calm - N/A   Mostly Cloudy
1:53 AM 9.0 °F - 1.0 °F 70% 30.20 in 10.0 mi Calm Calm - N/A   Clear
2:53 AM 7.0 °F - -0.0 °F 73% 30.23 in 10.0 mi Calm Calm - N/A   Clear
3:53 AM 5.0 °F - -0.9 °F 76% 30.25 in 10.0 mi Calm Calm - N/A   Partly Cloudy
4:53 AM 3.9 °F - -2.9 °F 73% 30.29 in 10.0 mi Calm Calm - N/A   Clear
5:53 AM 3.0 °F - -2.0 °F 80% 30.30 in 10.0 mi Calm Calm - N/A   Clear
6:53 AM 1.9 °F - -2.9 °F 80% 30.35 in 4.0 mi Calm Calm - N/A   Haze
7:53 AM 3.9 °F - -0.0 °F 84% 30.38 in 6.0 mi Calm Calm - N/A   Clear
8:53 AM 14.0 °F 5.1 °F -0.9 °F 52% 30.40 in 10.0 mi NNE 5.8 mph - N/A   Clear
9:53 AM 18.0 °F 11.1 °F -0.9 °F 44% 30.41 in 10.0 mi Variable 4.6 mph - N/A   Clear
10:53 AM 19.9 °F 10.1 °F -2.0 °F 38% 30.41 in 10.0 mi NNW 8.1 mph - N/A   Clear
11:53 AM 21.9 °F 13.4 °F -2.0 °F 35% 30.41 in 10.0 mi NE 6.9 mph - N/A   Clear
12:53 PM 23.0 °F 15.8 °F -0.9 °F 35% 30.39 in 10.0 mi NW 5.8 mph - N/A   Clear
1:53 PM 25.0 °F 19.3 °F -0.9 °F 33% 30.38 in 10.0 mi NNW 4.6 mph - N/A   Clear
2:53 PM 26.1 °F - 1.0 °F 34% 30.39 in 10.0 mi Calm Calm - N/A   Clear
3:53 PM 27.0 °F 23.0 °F 1.0 °F 33% 30.40 in 10.0 mi Variable 3.5 mph - N/A   Clear
4:53 PM 27.0 °F 19.5 °F 1.9 °F 34% 30.41 in 10.0 mi North 6.9 mph - N/A   Clear
5:53 PM 25.0 °F 20.7 °F -0.0 °F 34% 30.45 in 10.0 mi North 3.5 mph - N/A   Clear
6:53 PM 21.9 °F 14.5 °F -0.9 °F 37% 30.48 in 10.0 mi NW 5.8 mph - N/A   Clear
7:53 PM 15.1 °F 7.7 °F -0.9 °F 49% 30.51 in 10.0 mi WNW 4.6 mph - N/A   Clear
8:53 PM 14.0 °F - 3.0 °F 62% 30.55 in 10.0 mi Calm Calm - N/A   Clear
9:53 PM 10.9 °F - 1.9 °F 67% 30.58 in 10.0 mi Calm Calm - N/A   Clear
10:53 PM 8.1 °F - -0.9 °F 67% 30.61 in 10.0 mi Calm Calm - N/A   Clear
11:53 PM 5.0 °F - -4.0 °F 66% 30.63 in 10.0 mi Calm Calm - N/A   Clear